Location: Unspecified
(51.5147°N, 7.4673°E)
Time: 10:30:03
(UTC+01:00)

Explorer 7 - Visible Passes

Search period start: 16 February 2026 00:00
Search period end: 26 February 2026 00:00
Orbit: 431 x 545 km, 50.2° (Epoch: 15 February)

Date Brightness Start Highest point End Pass type
(mag) Time Alt. Az. Time Alt. Az. Time Alt. Az.
16 Feb 6.7 18:22:17 10° WSW 18:25:57 70° S 18:29:47 10° E visible
16 Feb 6.8 20:00:34 10° W 20:04:18 62° SSW 20:04:19 62° S visible
17 Feb 6.8 19:34:58 10° W 19:38:40 63° SSW 19:39:51 40° SE visible
17 Feb 9.6 21:13:31 10° W 21:14:13 14° W 21:14:13 14° W visible
18 Feb 6.8 19:09:19 10° W 19:13:01 64° SSW 19:15:24 21° ESE visible
18 Feb 8.8 20:47:51 10° W 20:49:46 22° WSW 20:49:46 22° WSW visible
19 Feb 6.8 18:43:39 10° W 18:47:20 64° S 18:50:58 11° ESE visible
19 Feb 8.2 20:22:10 10° W 20:25:21 27° SSW 20:25:21 27° SSW visible
20 Feb 8.2 19:56:28 10° W 19:59:43 28° SSW 20:00:58 23° S visible
21 Feb 8.2 19:30:44 10° W 19:33:59 28° SSW 19:36:39 14° SSE visible
22 Feb 8.3 19:04:57 10° W 19:08:12 29° SSW 19:11:33 10° SSE visible
23 Feb 8.3 18:39:10 10° W 18:42:25 29° SSW 18:45:46 10° SSE visible
